This demonstration page uses our WeatherBlox Daily Observations layout. Learn more.

Hourly Observations for September 28, 2020

Temp ( °F °C ) Dew Point ( °F °C ) Humidity (%) Winds ( mph kmh ) Pressure ( in mb ) Visibility ( mi km ) Precip ( " mm )
12:54 am 00:54 Mostly Cloudy 52 11.1 39 3.9 61 61 undefined N/A 30.03 1017 10 16.0934 0 0
1:54 am 01:54 Cloudy with Light Rain 53 11.7 42 5.6 66 66 NW 8 13 30.04 1017 10 16.0934 0.001 0.001
2:54 am 02:54 Cloudy 53 11.7 44 6.7 72 72 WNW 7 11 30.03 1017 10 16.0934 0.001 0.001
3:54 am 03:54 Cloudy 54 12.2 42 5.6 64 64 NW 10 17 30.03 1017 10 16.0934 0 0
4:54 am 04:54 Partly Cloudy 53 11.7 40 4.4 61 61 NW 12 19 30.03 1017 10 16.0934 0 0
5:54 am 05:54 Clear 51 10.6 39 3.9 64 64 NW 9 15 30.04 1017 10 16.0934 0 0
6:54 am 06:54 Clear 51 10.6 38 3.3 61 61 NW 13 20 30.06 1018 10 16.0934 0 0
7:54 am 07:54 Sunny 51 10.6 38 3.3 61 61 NW 13 20 30.09 1019 10 16.0934 0 0
8:54 am 08:54 Sunny 53 11.7 38 3.3 57 57 NW 16 26 30.1 1019 10 16.0934 0 0
9:54 am 09:54 Sunny 58 14.4 39 3.9 50 50 NNW 18 30 30.11 1020 10 16.0934 0 0
10:54 am 10:54 Sunny 62 16.7 39 3.9 43 43 NW 20 31 30.11 1020 10 16.0934 0 0
11:54 am 11:54 Mostly Cloudy 64 17.8 38 3.3 38 38 NNW 24 39 30.1 1019 10 16.0934 0 0
12:54 pm 12:54 Mostly Cloudy 68 20 38 3.3 33 33 NNW 22 35 30.09 1019 10 16.0934 0 0
1:54 pm 13:54 Mostly Cloudy 66 18.9 36 2.2 33 33 NNW 20 31 30.07 1018 10 16.0934 0 0
2:54 pm 14:54 Cloudy 67 19.4 36 2.2 32 32 NW 22 35 30.06 1018 10 16.0934 0 0
3:54 pm 15:54 Cloudy 66 18.9 35 1.7 32 32 NNW 22 35 30.04 1017 10 16.0934 0 0
4:54 pm 16:54 Cloudy 65 18.3 36 2.2 34 34 NNW 17 28 30.05 1018 10 16.0934 0 0
5:54 pm 17:54 Cloudy 64 17.8 36 2.2 35 35 NNW 20 31 30.06 1018 10 16.0934 0 0
6:54 pm 18:54 Mostly Cloudy 62 16.7 36 2.2 38 38 NNW 17 28 30.07 1018 10 16.0934 0 0
7:54 pm 19:54 Clear 59 15 36 2.2 42 42 NNW 9 15 30.09 1019 10 16.0934 0 0
8:54 pm 20:54 Cloudy 55 12.8 37 2.8 51 51 Calm 30.09 1019 10 16.0934 0 0
9:54 pm 21:54 Mostly Cloudy 54 12.2 37 2.8 53 53 NW 6 9 30.1 1019 10 16.0934 0 0
10:54 pm 22:54 Clear 50 10 38 3.3 63 63 NW 5 7 30.11 1020 10 16.0934 0 0
11:54 pm 23:54 Clear 42 5.6 36 2.2 79 79 N 3 6 30.11 1020 10 16.0934 0 0

Powered by AerisWeather